Location: *
(45.4590°N, 16.3650°E)
Time: 21:29:20
(UTC+00:00)

USA 267 - Pass Details

Date: 17 January 2020
Orbit: 1099 x 1108 km, 123.0° (Epoch: 10 February)

Event Time Altitude Azimuth Distance (km) Brightness Sun altitude
Exits shadow 16:33:09 - 49° (NE) 3,054 5.0 -9.4°
Reaches altitude 10° 16:33:24 10° 48° (NE) 2,964 4.9 -9.4°
Maximum altitude 16:39:26 42° 341° (NNW) 1,532 4.0 -10.4°
Drops below altitude 10° 16:45:29 10° 274° (W) 2,963 6.7 -11.4°
Sets 16:48:06 0° 267° (W) 3,921 7.9 -11.9°
